| time (UTC) | temp F | wind direction | speed MPH | gust MPH | rain 1hr in | rain 24hr in | rain mn in | humidity % | barometer mb |
| 20260504021535 | 70 | 0 | 1.0 | 4.0 | 0.00 | 0.05 | 0.05 | 69 | 1017.2 |
| 20260504020037 | 71 | 0 | 0.0 | 2.0 | 0.00 | 0.05 | 0.05 | 69 | 1017.2 |
| 20260504014537 | 71 | 0 | 1.0 | 3.0 | 0.00 | 0.05 | 0.05 | 67 | 1017.2 |
| 20260504013031 | 71 | 0 | 1.0 | 3.0 | 0.00 | 0.05 | 0.05 | 68 | 1017.3 |
| 20260504011532 | 71 | 348 | 1.0 | 3.0 | 0.00 | 0.05 | 0.05 | 68 | 1017.3 |
| 20260504010032 | 71 | 0 | 0.0 | 5.0 | 0.00 | 0.05 | 0.05 | 68 | 1017.1 |
| 20260504004534 | 71 | 31 | 1.0 | 5.0 | 0.00 | 0.05 | 0.05 | 68 | 1016.7 |
| 20260504003029 | 72 | 0 | 0.0 | 9.0 | 0.00 | 0.05 | 0.05 | 68 | 1016.7 |
| 20260504001532 | 72 | 69 | 1.0 | 5.0 | 0.00 | 0.05 | 0.05 | 67 | 1016.5 |
| 20260504000029 | 72 | 18 | 1.0 | 4.0 | 0.00 | 0.05 | 0.05 | 67 | 1016.4 |
| 20260503234532 | 72 | 28 | 1.0 | 3.0 | 0.00 | 0.05 | 0.05 | 66 | 1016.3 |
| 20260503233029 | 72 | 46 | 1.0 | 5.0 | 0.00 | 0.05 | 0.05 | 66 | 1016.2 |
| 20260503231532 | 72 | 64 | 2.0 | 7.0 | 0.00 | 0.05 | 0.05 | 66 | 1016.3 |
| 20260503230032 | 73 | 28 | 1.0 | 6.0 | 0.00 | 0.05 | 0.05 | 66 | 1016.3 |
| 20260503224529 | 73 | 313 | 2.0 | 6.0 | 0.00 | 0.07 | 0.05 | 65 | 1016.3 |
| 20260503223032 | 73 | 52 | 2.0 | 5.0 | 0.00 | 0.07 | 0.05 | 65 | 1016.2 |
| 20260503221532 | 73 | 116 | 1.0 | 5.0 | 0.00 | 0.07 | 0.05 | 66 | 1016.4 |
| 20260503220032 | 74 | 51 | 3.0 | 8.0 | 0.00 | 0.07 | 0.05 | 65 | 1016.3 |
| 20260503214540 | 74 | 85 | 2.0 | 9.0 | 0.00 | 0.09 | 0.05 | 65 | 1016.2 |
| 20260503213030 | 74 | 10 | 1.0 | 12.0 | 0.00 | 0.09 | 0.05 | 65 | 1016.2 |
| 20260503211529 | 75 | 5 | 1.0 | 7.0 | 0.00 | 0.09 | 0.05 | 65 | 1016.2 |
| 20260503210034 | 75 | 39 | 3.0 | 12.0 | 0.00 | 0.09 | 0.05 | 64 | 1016.3 |
| 20260503204534 | 74 | 345 | 5.0 | 16.0 | 0.00 | 0.26 | 0.05 | 65 | 1016.2 |
| 20260503203029 | 75 | 5 | 6.0 | 13.0 | 0.00 | 0.26 | 0.05 | 63 | 1016.3 |
| 20260503201532 | 76 | 32 | 4.0 | 14.0 | 0.00 | 0.26 | 0.05 | 63 | 1016.5 |
| 20260503200041 | 75 | 26 | 4.0 | 16.0 | 0.00 | 0.26 | 0.05 | 63 | 1016.4 |
| 20260503194530 | 75 | 14 | 9.0 | 19.0 | 0.00 | 0.27 | 0.05 | 63 | 1016.8 |
| 20260503193036 | 75 | 311 | 6.0 | 16.0 | 0.00 | 0.27 | 0.05 | 63 | 1016.9 |
| 20260503191529 | 74 | 24 | 6.0 | 17.0 | 0.00 | 0.27 | 0.05 | 65 | 1017.1 |
| 20260503190031 | 74 | 16 | 5.0 | 18.0 | 0.00 | 0.27 | 0.05 | 64 | 1017.5 |
| 20260503184539 | 75 | 5 | 5.0 | 16.0 | 0.00 | 0.27 | 0.05 | 65 | 1017.6 |
| 20260503183030 | 75 | 275 | 6.0 | 15.0 | 0.00 | 0.27 | 0.05 | 65 | 1017.9 |
| 20260503181532 | 75 | 11 | 5.0 | 16.0 | 0.00 | 0.27 | 0.05 | 66 | 1017.8 |
| 20260503180044 | 75 | 65 | 7.0 | 15.0 | 0.00 | 0.27 | 0.05 | 64 | 1017.8 |
| 20260503174543 | 74 | 83 | 4.0 | 15.0 | 0.00 | 0.27 | 0.05 | 67 | 1017.7 |
| 20260503173041 | 73 | 44 | 6.0 | 16.0 | 0.00 | 0.27 | 0.05 | 67 | 1017.8 |
| 20260503171533 | 72 | 49 | 3.0 | 15.0 | 0.00 | 0.27 | 0.05 | 69 | 1018.0 |
| 20260503081539 | 64 | 310 | 2.0 | 8.0 | 0.00 | 0.25 | 0.03 | 89 | 1014.9 |
| 20260503071529 | 65 | 321 | 1.0 | 5.0 | 0.00 | 0.25 | 0.03 | 89 | 1014.7 |
| 20260503054530 | 66 | 326 | 3.0 | 9.0 | 0.02 | 0.24 | 0.02 | 88 | 1015.2 |
| 20260503053030 | 66 | 284 | 4.0 | 10.0 | 0.01 | 0.23 | 0.01 | 87 | 1015.2 |
| 20260503051536 | 67 | 332 | 5.0 | 12.0 | 0.01 | 0.23 | 0.01 | 87 | 1015.0 |
| 20260503050030 | 68 | 325 | 4.0 | 11.0 | 0.00 | 0.22 | 0.00 | 87 | 1014.8 |
| 20260503044532 | 69 | 65 | 3.0 | 10.0 | 0.00 | 0.22 | 0.00 | 87 | 1014.6 |
| 20260503043030 | 69 | 17 | 4.0 | 9.0 | 0.00 | 0.22 | 0.00 | 87 | 1014.2 |
| 20260503041533 | 69 | 9 | 1.0 | 3.0 | 0.00 | 0.22 | 0.00 | 87 | 1013.9 |
| 20260503040034 | 69 | 281 | 0.0 | 2.0 | 0.00 | 0.22 | 0.00 | 87 | 1013.8 |
| 20260503034532 | 69 | 0 | 0.0 | 2.0 | 0.00 | 0.22 | 0.22 | 87 | 1013.5 |
| 20260503033036 | 69 | 0 | 0.0 | 2.0 | 0.00 | 0.22 | 0.22 | 87 | 1013.5 |
| 20260503031530 | 69 | 0 | 0.0 | 2.0 | 0.00 | 0.22 | 0.22 | 87 | 1013.4 |
| 20260503030049 | 69 | 272 | 0.0 | 2.0 | 0.00 | 0.22 | 0.22 | 87 | 1012.9 |
| 20260503024535 | 69 | 279 | 1.0 | 3.0 | 0.00 | 0.22 | 0.22 | 87 | 1012.9 |
| 20260503023033 | 69 | 219 | 0.0 | 4.0 | 0.00 | 0.22 | 0.22 | 87 | 1012.5 |